Location: *
(45.1961°N, 1.9694°E)
Time: 00:11:01
(UTC+00:00)

Aureole 1 Rocket - Pass Details

Date: 25 August 2019
Orbit: 379 x 1382 km, 73.9° (Epoch: 23 October)

Event Time Altitude Azimuth Distance (km) Brightness Sun altitude
Rises 23:06:05 0° 338° (NNW) 4,291 8.4 -33.2°
Reaches altitude 10° 23:09:08 10° 338° (NNW) 3,219 7.5 -33.3°
Enters shadow 23:16:01 72° 339° (NNW) 1,127 4.3 -33.5°
